Location: Newark
(46.7636°N, 1.8358°W)
Time: 06:07:42
(UTC+00:00)

Vanguard 2 Rocket - Pass Details

Date: 19 October 2019
Orbit: 554 x 3326 km, 32.9° (Epoch: 11 November)

Event Time Altitude Azimuth Distance (km) Brightness Sun altitude
Rises 06:48:24 0° 187° (S) 6,170 11.3 2.2°
Reaches altitude 10° 06:54:05 10° 172° (S) 5,587 11.3 3.1°
Maximum altitude 07:04:52 19° 134° (SE) 5,340 12.1 4.8°
Drops below altitude 10° 07:16:45 10° 98° (E) 6,279 13.1 6.7°
Sets 07:23:39 0° 84° (E) 7,179 12.6 7.8°
